sat.trackr.live / text

‹ back to catalog

STARLINK-33815

NORAD 63497 · 2025-071E

PAYLOAD ACTIVE UNKNOWN

§ Identity

Operator
Country
US
Launch date
2025-04-07
Launch site
AFWTR
Launch vehicle
Mass (kg)
RCS (m²)

Purposes: comms

External: N2YO · Heavens-Above · Gunter

§ Orbital elements

Epoch: 2026-09-20T09:06:06.368832Z

Period
94.01 min
Inclination
53.1586°
Eccentricity
0.0001256
Mean motion
15.31720265 rev/d
Perigee alt
469.8 km
Apogee alt
471.5 km
Semi-major
6,848.8 km
B*
8.8756e-5
RAAN
314.4830°
Arg perigee
62.2114°
Mean anomaly
297.9014°
Rev number
8,259

§ Raw data

STARLINK-338151 63497U 25071E   26263.37924038  .00002392  00000+0  88756-4 0  99922 63497  53.1586 314.4830 0001256  62.2114 297.9014 15.31720265 82590

JSON: /api/v1/satellites/63497 · /tle

For live sub-satellite position, see the globe view (requires WebGL).

§ Visibility from observer

Set your observer location to see the next 7 days of passes ≥ 10°. The values pass through the URL so the page stays shareable.

No JS? Fill the form by hand. The geolocation button needs JavaScript.